TimeCDT,TemperatureF,Dew PointF,Humidity,Sea Level PressureIn,VisibilityMPH,Wind Direction,Wind SpeedMPH,Gust SpeedMPH,PrecipitationIn,Events,Conditions,WindDirDegrees,DateUTC
12:23 AM,62.6,62.6,100,30.01,5.0,Calm,Calm,-,N/A,,Scattered Clouds,0,2013-05-11 05:23:00
12:32 AM,62.6,62.6,100,30.02,5.0,Calm,Calm,-,N/A,,Mostly Cloudy,0,2013-05-11 05:32:00
12:43 AM,62.6,62.6,100,30.02,1.8,Calm,Calm,-,N/A,,Overcast,0,2013-05-11 05:43:00
12:53 AM,63.0,63.0,100,30.01,0.5,Calm,Calm,-,N/A,Fog,Fog,0,2013-05-11 05:53:00
1:07 AM,62.6,62.6,100,30.02,1.5,Calm,Calm,-,N/A,,Mostly Cloudy,0,2013-05-11 06:07:00
1:16 AM,62.6,62.6,100,30.01,1.8,Calm,Calm,-,N/A,,Scattered Clouds,0,2013-05-11 06:16:00
1:22 AM,62.6,62.6,100,30.01,3.0,Calm,Calm,-,N/A,,Partly Cloudy,0,2013-05-11 06:22:00
1:53 AM,62.1,62.1,100,30.01,6.0,WSW,3.5,-,N/A,,Clear,250,2013-05-11 06:53:00
2:53 AM,62.1,61.0,96,29.96,5.0,Calm,Calm,-,N/A,,Clear,0,2013-05-11 07:53:00
3:53 AM,61.0,61.0,100,29.97,8.0,WNW,5.8,-,N/A,,Clear,290,2013-05-11 08:53:00
4:53 AM,62.1,61.0,96,29.98,9.0,WNW,5.8,-,0.01,,Clear,300,2013-05-11 09:53:00
5:53 AM,60.1,60.1,100,29.99,8.0,NNW,5.8,-,N/A,,Clear,340,2013-05-11 10:53:00
6:53 AM,60.1,59.0,96,30.02,7.0,NNW,6.9,-,N/A,,Clear,330,2013-05-11 11:53:00
7:53 AM,61.0,59.0,93,30.04,9.0,North,4.6,-,N/A,,Clear,360,2013-05-11 12:53:00
8:53 AM,62.1,59.0,90,30.06,10.0,North,10.4,18.4,N/A,,Clear,350,2013-05-11 13:53:00
9:53 AM,66.9,59.0,76,30.06,10.0,North,10.4,-,N/A,,Clear,360,2013-05-11 14:53:00
10:53 AM,70.0,57.9,65,30.06,10.0,North,11.5,17.3,N/A,,Partly Cloudy,360,2013-05-11 15:53:00
11:53 AM,72.0,57.9,61,30.06,10.0,North,8.1,-,N/A,,Clear,350,2013-05-11 16:53:00
12:53 PM,73.0,57.9,59,30.06,10.0,Variable,6.9,-,N/A,,Mostly Cloudy,0,2013-05-11 17:53:00
1:53 PM,72.0,57.9,61,30.07,10.0,NW,5.8,-,N/A,,Mostly Cloudy,310,2013-05-11 18:53:00
2:53 PM,75.9,57.0,52,30.06,10.0,North,5.8,-,N/A,,Mostly Cloudy,350,2013-05-11 19:53:00
3:53 PM,75.9,55.9,50,30.05,10.0,North,8.1,-,N/A,,Mostly Cloudy,10,2013-05-11 20:53:00
4:53 PM,78.1,55.0,45,30.04,10.0,Variable,6.9,-,N/A,,Partly Cloudy,0,2013-05-11 21:53:00
5:53 PM,77.0,53.1,43,30.04,10.0,North,6.9,-,N/A,,Scattered Clouds,360,2013-05-11 22:53:00
6:53 PM,75.0,53.1,46,30.04,10.0,NNW,3.5,-,N/A,,Clear,340,2013-05-11 23:53:00
7:53 PM,64.9,59.0,81,30.06,10.0,Calm,Calm,-,N/A,,Clear,0,2013-05-12 00:53:00
8:53 PM,62.6,57.2,82,30.08,10.0,Calm,Calm,-,N/A,,Clear,0,2013-05-12 01:53:00
9:53 PM,57.9,55.9,93,30.09,10.0,Calm,Calm,-,N/A,,Clear,0,2013-05-12 02:53:00
10:53 PM,57.0,55.0,93,30.10,10.0,Calm,Calm,-,N/A,,Clear,0,2013-05-12 03:53:00
11:53 PM,55.0,54.0,96,30.10,10.0,Calm,Calm,-,N/A,,Clear,0,2013-05-12 04:53:00